• In Uzbekistan
  • List of Countries
  • For 7 days
  • Water Temperature
  • Weather Map
  • Weather Widgets
  • user-avatar
    Login

    Hourly Weather Kalat

    Today, 29 January, Wednesday

    Time Temperature Precipitation Wind Pressure Humidity
    00:00 -20°C° 0 mm 1 mps 460 mmHg 65%
    01:00 -20°C° 0 mm 1 mps 460 mmHg 63%
    02:00 -19°C° 0 mm 1 mps 460 mmHg 61%
    03:00 -19°C° 0 mm 1 mps 460 mmHg 62%
    04:00 -19°C° 0 mm 1 mps 461 mmHg 63%
    05:00 -19°C° 0 mm 1 mps 461 mmHg 64%
    06:00 -18°C° 0 mm 1 mps 462 mmHg 66%
    07:00 -17°C° 0 mm 1 mps 463 mmHg 69%
    08:00 -16°C° 0 mm 1 mps 464 mmHg 72%
    09:00 -14°C° 0.1 mm 1 mps 465 mmHg 74%
    10:00 -13°C° 0.1 mm 1 mps 466 mmHg 76%
    11:00 -11°C° 0.1 mm 1 mps 468 mmHg 78%
    12:00 -10°C° 0.1 mm 1 mps 468 mmHg 76%
    13:00 -9°C° 0.1 mm 1 mps 468 mmHg 74%
    14:00 -8°C° 0.1 mm 1 mps 469 mmHg 72%
    15:00 -9°C° 0.2 mm 1 mps 468 mmHg 79%
    16:00 -10°C° 0.2 mm 1 mps 467 mmHg 85%
    17:00 -13°C° 0.2 mm 2 mps 467 mmHg 91%
    18:00 -14°C° 0.3 mm 2 mps 467 mmHg 91%
    19:00 -15°C° 0.3 mm 2 mps 466 mmHg 92%
    20:00 -16°C° 0.3 mm 2 mps 466 mmHg 92%
    21:00 -17°C° 0.1 mm 2 mps 465 mmHg 89%
    22:00 -19°C° 0.1 mm 2 mps 464 mmHg 86%
    23:00 -20°C° 0.1 mm 2 mps 463 mmHg 83%

    Tomorrow, 30 January, Thursday

    Time Temperature Precipitation Wind Pressure Humidity
    00:00 -20°C° 0 mm 2 mps 463 mmHg 80%
    01:00 -21°C° 0 mm 2 mps 462 mmHg 76%
    02:00 -21°C° 0 mm 2 mps 462 mmHg 73%
    03:00 -23°C° 0 mm 2 mps 462 mmHg 71%
    04:00 -23°C° 0 mm 2 mps 461 mmHg 70%
    05:00 -23°C° 0 mm 2 mps 461 mmHg 69%
    06:00 -23°C° 0 mm 2 mps 461 mmHg 66%
    07:00 -23°C° 0 mm 2 mps 461 mmHg 64%
    08:00 -23°C° 0 mm 2 mps 462 mmHg 61%
    09:00 -19°C° 0 mm 2 mps 463 mmHg 60%
    10:00 -16°C° 0 mm 2 mps 465 mmHg 59%
    11:00 -14°C° 0 mm 2 mps 467 mmHg 58%
    12:00 -13°C° 0 mm 2 mps 467 mmHg 58%
    13:00 -12°C° 0 mm 2 mps 467 mmHg 59%
    14:00 -10°C° 0 mm 2 mps 467 mmHg 59%
    15:00 -12°C° 0 mm 2 mps 466 mmHg 66%
    16:00 -14°C° 0 mm 2 mps 465 mmHg 72%
    17:00 -15°C° 0 mm 2 mps 464 mmHg 78%
    18:00 -17°C° 0 mm 2 mps 463 mmHg 79%
    19:00 -18°C° 0 mm 2 mps 463 mmHg 80%
    20:00 -19°C° 0 mm 2 mps 462 mmHg 81%
    21:00 -19°C° 0 mm 2 mps 462 mmHg 80%
    22:00 -20°C° 0 mm 2 mps 461 mmHg 78%
    23:00 -20°C° 0 mm 2 mps 461 mmHg 77%

    Day after tomorrow, 31 January, Friday

    Time Temperature Precipitation Wind Pressure Humidity
    00:00 -20°C° 0 mm 2 mps 461 mmHg 76%
    01:00 -20°C° 0 mm 2 mps 461 mmHg 75%
    02:00 -21°C° 0 mm 2 mps 461 mmHg 74%
    03:00 -21°C° 0 mm 2 mps 461 mmHg 74%
    04:00 -21°C° 0 mm 2 mps 460 mmHg 74%
    05:00 -20°C° 0 mm 2 mps 460 mmHg 74%
    06:00 -18°C° 0 mm 1 mps 461 mmHg 76%
    07:00 -18°C° 0 mm 1 mps 461 mmHg 79%
    08:00 -17°C° 0 mm 1 mps 462 mmHg 81%
    09:00 -16°C° 0 mm 1 mps 463 mmHg 80%
    10:00 -14°C° 0 mm 1 mps 464 mmHg 79%
    11:00 -13°C° 0 mm 1 mps 465 mmHg 79%
    12:00 -12°C° 0.1 mm 1 mps 465 mmHg 79%
    13:00 -11°C° 0.1 mm 1 mps 465 mmHg 79%
    14:00 -11°C° 0.1 mm 1 mps 465 mmHg 80%
    15:00 -12°C° 0.2 mm 1 mps 465 mmHg 83%
    16:00 -12°C° 0.2 mm 1 mps 464 mmHg 86%
    17:00 -13°C° 0.2 mm 1 mps 464 mmHg 90%
    18:00 -15°C° 0.1 mm 1 mps 463 mmHg 90%
    19:00 -16°C° 0.1 mm 1 mps 462 mmHg 91%
    20:00 -18°C° 0.1 mm 1 mps 461 mmHg 92%
    21:00 -19°C° 0 mm 1 mps 461 mmHg 90%
    22:00 -19°C° 0 mm 1 mps 460 mmHg 89%
    23:00 -23°C° 0 mm 2 mps 460 mmHg 87%

    1 February, Saturday

    Time Temperature Precipitation Wind Pressure Humidity
    00:00 -23°C° 0 mm 2 mps 460 mmHg 85%
    01:00 -24°C° 0 mm 2 mps 460 mmHg 83%
    02:00 -24°C° 0 mm 2 mps 460 mmHg 80%
    03:00 -24°C° 0 mm 2 mps 460 mmHg 77%
    04:00 -21°C° 0 mm 1 mps 460 mmHg 73%
    05:00 -21°C° 0 mm 1 mps 459 mmHg 69%
    06:00 -21°C° 0 mm 1 mps 460 mmHg 64%
    07:00 -20°C° 0 mm 1 mps 461 mmHg 59%
    08:00 -20°C° 0 mm 1 mps 461 mmHg 54%
    09:00 -19°C° 0 mm 2 mps 463 mmHg 53%
    10:00 -16°C° 0 mm 2 mps 465 mmHg 52%
    11:00 -14°C° 0 mm 2 mps 467 mmHg 51%
    12:00 -13°C° 0 mm 2 mps 467 mmHg 52%
    13:00 -12°C° 0 mm 2 mps 468 mmHg 53%
    14:00 -10°C° 0 mm 2 mps 468 mmHg 53%
    15:00 -12°C° 0 mm 2 mps 467 mmHg 59%
    16:00 -13°C° 0 mm 2 mps 466 mmHg 66%
    17:00 -15°C° 0 mm 2 mps 465 mmHg 72%
    18:00 -18°C° 0 mm 3 mps 464 mmHg 69%
    19:00 -19°C° 0 mm 3 mps 463 mmHg 66%
    20:00 -22°C° 0 mm 3 mps 462 mmHg 62%
    21:00 -22°C° 0 mm 3 mps 462 mmHg 56%
    22:00 -23°C° 0 mm 3 mps 462 mmHg 50%
    23:00 -23°C° 0 mm 3 mps 462 mmHg 44%

    2 February, Sunday

    Time Temperature Precipitation Wind Pressure Humidity
    00:00 -23°C° 0 mm 3 mps 462 mmHg 41%
    01:00 -23°C° 0 mm 3 mps 462 mmHg 38%
    02:00 -23°C° 0 mm 3 mps 462 mmHg 34%
    03:00 -23°C° 0 mm 3 mps 462 mmHg 32%
    04:00 -21°C° 0 mm 2 mps 462 mmHg 30%
    05:00 -21°C° 0 mm 2 mps 461 mmHg 28%
    06:00 -21°C° 0 mm 2 mps 462 mmHg 28%
    07:00 -21°C° 0 mm 2 mps 462 mmHg 27%
    08:00 -20°C° 0 mm 2 mps 463 mmHg 27%
    09:00 -18°C° 0 mm 2 mps 465 mmHg 33%
    10:00 -15°C° 0 mm 2 mps 467 mmHg 39%
    11:00 -12°C° 0 mm 2 mps 468 mmHg 45%
    12:00 -10°C° 0 mm 2 mps 469 mmHg 47%
    13:00 -9°C° 0 mm 2 mps 469 mmHg 49%
    14:00 -9°C° 0 mm 2 mps 469 mmHg 51%
    15:00 -12°C° 0 mm 3 mps 468 mmHg 58%
    16:00 -14°C° 0 mm 3 mps 466 mmHg 64%
    17:00 -16°C° 0 mm 3 mps 465 mmHg 71%
    18:00 -17°C° 0 mm 3 mps 464 mmHg 69%
    19:00 -19°C° 0 mm 3 mps 463 mmHg 68%
    20:00 -23°C° 0 mm 4 mps 462 mmHg 66%
    21:00 -22°C° 0 mm 3 mps 462 mmHg 60%
    22:00 -22°C° 0 mm 3 mps 462 mmHg 54%
    23:00 -22°C° 0 mm 3 mps 463 mmHg 48%

    3 February, Monday

    Time Temperature Precipitation Wind Pressure Humidity
    00:00 -22°C° 0 mm 3 mps 462 mmHg 46%
    01:00 -22°C° 0 mm 3 mps 462 mmHg 45%
    02:00 -23°C° 0 mm 4 mps 462 mmHg 44%
    03:00 -22°C° 0 mm 3 mps 462 mmHg 44%
    04:00 -22°C° 0 mm 3 mps 462 mmHg 44%
    05:00 -22°C° 0 mm 3 mps 462 mmHg 44%
    06:00 -22°C° 0 mm 3 mps 462 mmHg 45%
    07:00 -21°C° 0 mm 3 mps 462 mmHg 46%
    08:00 -21°C° 0 mm 3 mps 462 mmHg 46%
    09:00 -18°C° 0 mm 3 mps 464 mmHg 48%
    10:00 -16°C° 0 mm 3 mps 466 mmHg 49%
    11:00 -14°C° 0 mm 3 mps 467 mmHg 51%
    12:00 -13°C° 0 mm 3 mps 467 mmHg 54%
    13:00 -14°C° 0 mm 4 mps 467 mmHg 58%
    14:00 -12°C° 0 mm 4 mps 467 mmHg 61%
    15:00 -14°C° 0 mm 4 mps 466 mmHg 67%
    16:00 -15°C° 0 mm 3 mps 465 mmHg 73%
    17:00 -16°C° 0 mm 3 mps 464 mmHg 79%
    18:00 -17°C° 0 mm 3 mps 463 mmHg 81%
    19:00 -19°C° 0 mm 3 mps 462 mmHg 82%
    20:00 -21°C° 0 mm 3 mps 462 mmHg 84%
    21:00 -21°C° 0 mm 3 mps 461 mmHg 84%
    22:00 -23°C° 0 mm 4 mps 461 mmHg 84%
    23:00 -23°C° 0 mm 4 mps 461 mmHg 84%
    Show more